Wind_Speed
58 56 62 66 57 52 51 49 51 44 37 40 41 44 41 43 44 36 32 33 34 40 45 52 54 55 54 55 57 60 60 62 63 62 60 62 65 65 72 76 76 77 74 79
57 58 52 56 55 52 47 50 49 44 40 41 41 38 42 42 40 41 35 37 40 42 42 47 49 53 53 54 58 63 62 63 63 62 64 67 69 74 77 78 77 76 69 77
47 49 52 55 55 55 54 48 50 42 47 47 45 47 46 48 45 36 33 37 38 42 47 51 54 54 56 59 59 59 61 65 65 65 67 70 73 73 73 71 70 69 72 72
42 40 45 41 43 39 52 49 50 46 48 46 47 52 53 49 49 47 37 37 42 46 53 53 53 53 54 54 56 60 65 66 68 70 74 75 75 76 74 73 73 72 73 75
57 55 51 48 43 40 50 50 51 50 54 50 53 61 55 38 36 40 41 43 49 53 53 56 61 60 59 60 61 62 66 70 71 73 75 74 76 77 77 72 72 73 71 70
47 45 48 54 49 50 47 54 55 57 59 60 63 60 44 40 41 43 43 46 51 53 57 60 58 58 61 62 65 67 69 70 71 75 76 79 83 77 75 76 73 71 68 65
55 51 48 46 52 59 64 52 53 60 58 56 57 53 42 35 39 45 48 47 49 53 57 58 59 61 64 64 64 67 70 71 70 76 73 79 80 76 70 66 66 65 56 48
53 55 54 44 50 45 45 53 50 46 50 52 51 42 42 40 41 43 46 49 53 57 57 59 61 62 63 65 67 68 69 71 75 80 81 82 79 62 55 49 44 35 33 27
50 52 59 63 62 57 51 58 57 51 42 43 42 45 40 41 44 48 51 54 56 56 57 59 61 64 66 69 74 76 78 81 79 75 69 66 61 45 43 32 29 26 29 34
60 47 52 62 53 51 50 36 38 38 45 53 45 38 39 43 48 53 56 54 53 54 57 60 64 69 74 77 79 78 73 64 60 56 51 42 34 29 31 28 32 29 28 30
38 42 43 27 30 33 35 34 42 45 43 38 41 43 44 47 51 49 50 51 54 59 62 67 71 73 73 73 68 61 58 51 44 36 29 33 35 37 41 44 49 43 42 44
46 48 34 30 30 31 33 36 32 34 35 38 41 43 43 46 45 47 52 55 60 65 64 62 65 64 61 55 49 39 39 36 38 38 40 38 40 42 41 44 45 42 40 31
22 30 29 29 31 30 31 35 34 36 38 42 43 43 45 46 50 54 56 55 54 56 55 55 53 48 46 40 32 24 21 22 19 20 16 21 19 19 17 12 7 4 4 4
19 26 32 33 33 30 30 33 30 33 37 40 41 43 45 50 53 50 48 48 48 46 46 42 41 37 29 14 9 10 9 9 9 9 8 6 6 6 6 7 6 3 2 1
26 29 29 29 31 34 33 32 37 36 36 39 44 46 44 43 41 40 40 39 37 35 31 30 24 11 8 8 7 7 6 8 8 9 10 7 5 5 5 6 5 4 1 4
37 25 28 31 33 36 40 39 36 37 38 38 35 36 34 33 31 31 30 31 29 26 22 15 2 6 9 8 7 8 9 8 7 8 6 5 6 8 7 6 8 6 5 5
33 29 32 36 39 38 33 34 33 30 28 31 30 28 26 26 24 23 24 21 14 11 4 4 6 8 7 10 10 8 6 7 8 9 10 10 9 8 8 7 7 7 7 8
27 29 31 30 28 31 25 21 21 24 26 23 21 17 18 21 19 18 16 10 7 6 6 9 9 10 10 11 10 10 11 13 13 12 11 10 10 9 9 9 11 12 13 13
25 25 29 26 20 16 17 20 21 20 17 14 16 18 16 16 16 15 12 13 14 13 14 15 14 14 15 15 14 15 18 19 17 18 18 16 15 15 16 16 17 19 20 20
18 16 15 18 16 16 17 14 15 14 13 13 13 13 12 14 15 16 17 17 18 18 20 23 21 20 21 22 24 24 25 24 24 25 25 24 24 23 23 24 25 26 26 27
14 16 17 14 10 9 12 12 10 10 10 11 12 13 15 16 18 19 20 20 22 23 24 27 28 25 27 28 29 30 30 30 30 30 30 31 32 34 34 34 34 35 35 35
11 11 9 7 9 9 7 6 7 9 10 11 13 14 15 16 16 18 19 20 21 23 23 25 24 26 25 27 30 29 30 32 34 34 35 35 35 37 39 40 40 39 37 37
7 6 6 5 4 4 7 8 9 9 11 12 13 13 15 16 17 19 21 21 23 24 24 26 27 24 22 20 25 30 34 33 34 37 36 40 42 41 41 42 44 45 44 45
3 2 1 2 3 6 8 9 11 11 10 12 14 15 16 18 19 21 23 25 26 27 28 21 19 18 20 20 25 33 38 38 44 44 40 41 42 44 45 48 53 57 58 59
1 2 2 4 5 7 8 10 9 11 12 15 16 17 18 21 23 24 27 30 30 32 26 24 25 28 32 34 37 40 44 50 55 57 58 59 59 59 57 58 59 59 59 60
2 4 5 8 9 10 11 11 12 14 16 19 19 20 22 23 26 27 30 32 32 33 33 35 36 36 39 42 45 47 49 52 55 57 59 61 62 63 64 64 64 64 63 63
4 6 8 9 11 12 14 14 15 17 18 20 21 23 24 27 28 30 32 35 37 38 39 41 42 43 44 45 48 51 53 56 58 60 61 62 63 63 63 62 62 61 60 59
Wind_Direction
233 237 241 246 251 257 258 260 260 261 262 262 266 266 279 288 285 282 283 287 291 291 292 298 298 300 295 295 290 294 297 298 296 298 297 295 292 288 289 288 288 285 284 287
238 241 244 248 250 254 260 256 256 262 261 264 274 274 282 286 285 275 286 293 297 299 297 296 303 301 297 295 295 294 295 295 296 296 295 293 292 290 289 288 287 286 285 286
234 238 247 250 253 259 258 260 254 260 261 258 271 276 275 285 276 272 283 289 295 298 299 299 298 295 293 293 293 293 293 294 295 293 292 290 289 288 285 283 280 282 279 280
223 240 242 250 251 257 260 250 256 259 264 263 276 281 272 274 274 272 284 292 298 298 298 297 297 293 291 292 293 292 291 291 290 289 288 286 285 283 280 280 281 278 282 281
225 234 244 244 237 236 246 239 258 252 264 257 277 273 271 271 276 280 288 294 294 294 294 294 293 290 290 291 290 288 287 287 286 285 285 285 285 284 284 282 281 281 283 287
225 244 247 244 240 249 246 246 261 260 257 262 275 272 266 268 273 283 288 288 291 297 293 292 290 288 289 291 293 295 294 292 290 289 286 282 281 282 280 281 284 288 292 293
250 242 242 245 247 245 253 248 262 259 263 271 264 261 273 279 280 281 287 292 293 292 291 292 291 292 292 292 294 293 289 285 282 283 281 278 284 283 286 288 289 291 288 287
228 231 243 248 232 253 261 263 258 255 261 265 263 271 283 289 291 291 289 288 289 292 292 293 292 291 292 292 290 287 285 284 282 281 283 286 286 294 293 288 288 288 287 273
251 250 250 255 255 258 265 267 263 258 264 265 267 276 278 281 283 283 286 289 292 292 293 292 290 288 289 289 289 288 287 288 288 289 289 290 295 293 292 294 281 279 271 268
244 250 250 246 254 260 255 259 264 274 275 274 272 275 278 280 284 288 288 288 289 290 289 288 289 289 291 291 290 290 288 286 285 285 283 288 285 296 283 281 276 285 276 275
235 236 224 225 243 272 278 270 262 265 270 273 275 276 279 282 286 287 287 289 289 289 289 290 292 292 293 294 295 296 295 294 292 286 277 268 271 270 273 278 280 279 279 276
236 235 248 271 270 270 265 269 262 262 265 273 279 278 280 284 285 285 285 286 288 290 292 293 295 296 296 298 301 300 302 297 292 289 287 282 279 282 285 282 282 284 278 258
249 240 249 254 251 255 265 259 268 278 276 276 279 279 281 284 285 286 287 290 292 294 296 296 296 296 299 304 312 318 318 314 322 315 312 301 297 300 319 332 347 355 87 90
297 234 233 242 250 261 262 267 267 276 274 276 280 281 282 284 286 288 291 292 294 296 295 296 295 297 301 332 1 358 10 19 1 14 18 21 26 8 23 45 63 78 28 253
266 244 246 249 251 264 267 268 278 279 277 277 280 283 283 284 288 289 293 295 297 297 298 297 298 303 339 327 326 332 343 349 341 344 357 18 48 64 48 27 29 20 302 223
275 248 251 256 265 272 272 277 273 271 279 280 276 278 282 286 289 291 295 298 299 304 306 313 20 357 329 311 317 342 354 351 330 339 339 340 338 324 329 353 341 328 304 282
246 258 266 267 266 270 265 267 273 277 276 277 282 279 282 286 290 297 300 304 308 315 337 151 321 311 309 302 314 313 316 320 320 320 326 319 325 331 335 333 317 306 289 278
253 258 265 261 263 267 265 268 270 270 272 276 278 277 283 289 296 303 309 300 311 309 285 307 299 302 300 318 307 301 310 316 314 310 308 311 309 302 298 293 290 290 289 287
258 254 261 267 258 256 259 260 264 272 280 283 284 287 293 297 305 309 301 286 271 276 287 293 292 289 291 291 288 283 282 285 287 289 290 286 283 283 284 285 287 288 289 287
246 245 240 242 244 254 261 272 276 282 282 282 288 295 301 305 303 296 289 282 282 285 286 283 286 289 284 280 280 282 284 283 285 287 286 285 281 281 283 285 287 288 287 284
208 226 232 236 246 268 267 274 279 286 288 295 294 300 302 298 294 292 291 292 289 287 283 280 280 274 276 278 277 278 280 282 281 280 279 278 278 279 280 280 280 281 282 282
215 223 235 259 262 267 277 294 294 288 287 285 292 291 296 301 301 302 305 304 303 300 299 296 295 292 286 279 278 280 284 282 280 284 285 281 285 287 287 286 285 286 285 285
225 250 269 287 294 291 289 281 270 273 276 281 294 301 300 305 308 310 309 307 303 301 300 300 302 297 293 310 304 291 289 267 271 286 283 288 293 291 288 289 288 283 280 281
238 303 326 335 296 282 273 264 264 269 283 294 305 314 318 317 315 312 310 307 309 310 312 305 294 294 292 294 284 277 277 282 290 293 291 287 281 280 282 283 284 284 285 286
169 345 313 301 291 289 283 275 280 293 306 316 321 319 315 313 312 311 308 307 313 316 313 304 287 285 282 278 277 276 278 280 283 286 287 287 287 288 288 287 286 285 284 284
290 301 303 295 296 303 307 312 313 316 318 319 314 310 306 305 303 306 305 308 311 308 304 302 300 296 292 291 290 290 289 288 287 287 287 286 286 286 285 285 285 284 284 283
301 287 290 299 305 312 318 320 317 314 312 311 308 306 306 304 305 308 308 306 305 306 305 303 302 301 300 298 297 298 298 297 295 293 290 288 286 285 284 283 282 282 281 279
Height
5658 5666 5671 5677 5681 5687 5689 5692 5695 5698 5701 5703 5702 5703 5705 5704 5701 5705 5702 5701 5699 5697 5694 5691 5687 5685 5680 5679 5676 5672 5666 5661 5658 5656 5652 5647 5641 5635 5624 5615 5611 5600 5590 5598
5648 5655 5662 5666 5672 5675 5678 5681 5684 5686 5688 5688 5691 5693 5694 5692 5692 5692 5692 5690 5688 5686 5683 5678 5676 5673 5672 5667 5663 5658 5655 5648 5643 5641 5637 5631 5625 5617 5606 5594 5586 5583 5576 5571
5639 5646 5652 5656 5662 5664 5666 5670 5672 5675 5675 5677 5681 5683 5684 5683 5683 5681 5680 5678 5676 5674 5670 5666 5662 5659 5656 5653 5648 5642 5637 5633 5629 5623 5616 5612 5607 5600 5588 5576 5566 5563 5555 5547
5631 5634 5641 5647 5652 5656 5658 5656 5660 5662 5664 5668 5670 5671 5672 5671 5671 5667 5667 5665 5665 5661 5656 5653 5649 5645 5641 5637 5633 5626 5620 5615 5609 5603 5596 5588 5585 5578 5570 5565 5559 5540 5539 5531
5622 5631 5633 5638 5642 5647 5647 5644 5652 5653 5656 5657 5659 5659 5660 5658 5657 5656 5654 5653 5651 5647 5643 5639 5634 5630 5625 5620 5614 5607 5601 5594 5588 5584 5573 5567 5565 5557 5550 5543 5534 5524 5517 5513
5613 5618 5625 5632 5633 5636 5638 5642 5644 5643 5643 5645 5646 5648 5646 5644 5643 5642 5640 5638 5634 5632 5627 5622 5617 5612 5608 5603 5598 5591 5583 5575 5567 5565 5555 5546 5541 5543 5528 5519 5514 5506 5505 5503
5603 5609 5615 5619 5621 5625 5629 5631 5633 5631 5631 5633 5634 5634 5634 5632 5630 5627 5625 5623 5619 5617 5611 5606 5602 5597 5592 5588 5583 5575 5566 5558 5546 5537 5535 5523 5525 5520 5508 5500 5496 5493 5489 5486
5593 5599 5605 5608 5611 5615 5619 5619 5620 5619 5619 5621 5622 5621 5620 5618 5616 5614 5612 5609 5605 5599 5595 5591 5586 5581 5577 5571 5563 5557 5546 5539 5528 5519 5512 5502 5501 5502 5493 5485 5483 5480 5475 5476
5582 5588 5594 5596 5602 5604 5607 5610 5611 5613 5611 5611 5611 5609 5607 5606 5604 5601 5598 5594 5589 5584 5580 5575 5569 5562 5557 5552 5546 5540 5530 5517 5507 5498 5486 5481 5484 5483 5477 5474 5472 5474 5470 5469
5575 5578 5582 5585 5590 5592 5598 5598 5600 5600 5598 5598 5598 5596 5596 5594 5591 5588 5583 5579 5575 5570 5565 5559 5554 5548 5540 5535 5527 5520 5511 5498 5487 5481 5476 5472 5472 5470 5469 5469 5468 5463 5462 5461
5563 5567 5571 5574 5579 5581 5584 5586 5588 5587 5585 5585 5585 5584 5582 5580 5577 5574 5569 5565 5560 5554 5548 5543 5537 5530 5522 5516 5507 5495 5490 5483 5479 5473 5469 5467 5465 5463 5461 5458 5455 5453 5453 5452
5556 5560 5562 5565 5567 5570 5574 5574 5575 5574 5574 5573 5571 5570 5568 5566 5562 5560 5556 5553 5545 5539 5534 5526 5520 5513 5505 5497 5494 5483 5479 5472 5469 5467 5462 5458 5455 5452 5450 5447 5444 5442 5439 5441
5549 5551 5554 5557 5558 5560 5562 5563 5564 5564 5562 5562 5559 5557 5555 5552 5550 5545 5541 5535 5532 5525 5518 5511 5505 5499 5493 5486 5481 5477 5472 5467 5464 5460 5456 5449 5447 5446 5444 5441 5438 5437 5438 5442
5538 5543 5546 5548 5551 5552 5552 5554 5553 5552 5552 5550 5548 5546 5543 5540 5537 5532 5527 5523 5517 5512 5506 5500 5493 5489 5484 5482 5479 5475 5471 5466 5465 5462 5457 5453 5449 5447 5445 5443 5441 5442 5443 5445
5531 5535 5537 5537 5540 5542 5544 5544 5542 5540 5541 5538 5536 5532 5530 5528 5524 5519 5513 5509 5504 5500 5496 5492 5486 5482 5481 5479 5478 5475 5470 5466 5465 5463 5460 5457 5454 5451 5449 5447 5445 5444 5445 5445
5525 5526 5527 5530 5533 5534 5533 5532 5531 5530 5528 5527 5525 5525 5519 5515 5511 5507 5503 5500 5497 5494 5490 5485 5481 5480 5480 5479 5477 5474 5469 5466 5465 5463 5461 5458 5456 5454 5450 5447 5446 5445 5445 5444
5514 5518 5523 5523 5523 5524 5523 5522 5519 5517 5519 5517 5515 5514 5508 5505 5503 5501 5499 5494 5491 5488 5486 5483 5482 5480 5477 5476 5475 5472 5468 5466 5464 5462 5460 5458 5455 5453 5450 5448 5446 5445 5444 5443
5509 5512 5515 5512 5510 5512 5511 5509 5510 5512 5511 5509 5508 5505 5504 5502 5499 5498 5493 5490 5486 5485 5485 5484 5480 5476 5474 5473 5472 5469 5467 5465 5462 5460 5458 5455 5453 5451 5450 5447 5446 5444 5442 5441
5502 5503 5502 5502 5504 5505 5505 5507 5507 5503 5503 5501 5503 5502 5500 5497 5493 5490 5488 5487 5484 5482 5480 5480 5479 5474 5471 5469 5467 5465 5463 5461 5459 5457 5455 5453 5450 5448 5446 5443 5441 5439 5437 5436
5492 5493 5495 5499 5501 5500 5502 5498 5500 5498 5497 5499 5497 5495 5492 5490 5487 5486 5485 5483 5479 5478 5475 5472 5472 5469 5466 5463 5461 5459 5456 5454 5452 5450 5448 5446 5444 5442 5440 5438 5435 5433 5431 5428
5491 5492 5495 5496 5494 5494 5496 5496 5494 5493 5492 5494 5492 5490 5487 5485 5484 5481 5478 5473 5471 5470 5468 5464 5463 5462 5459 5455 5452 5450 5448 5446 5443 5441 5439 5436 5434 5432 5430 5428 5426 5423 5421 5419
5490 5493 5490 5491 5492 5491 5491 5487 5488 5490 5490 5491 5489 5488 5483 5480 5477 5473 5471 5465 5462 5461 5458 5455 5453 5450 5448 5445 5442 5440 5438 5435 5433 5432 5429 5425 5423 5420 5417 5414 5412 5410 5408 5405
5488 5488 5486 5486 5485 5484 5485 5486 5488 5487 5487 5488 5484 5480 5476 5473 5470 5466 5463 5459 5456 5454 5451 5447 5445 5441 5438 5436 5434 5431 5428 5427 5424 5421 5417 5413 5410 5407 5404 5401 5398 5396 5394 5392
5483 5482 5481 5480 5482 5482 5482 5484 5485 5485 5482 5480 5476 5471 5468 5465 5462 5459 5456 5452 5449 5446 5443 5439 5436 5434 5432 5430 5428 5424 5418 5414 5411 5407 5404 5401 5397 5393 5389 5385 5382 5380 5378 5375
5478 5477 5478 5478 5478 5478 5480 5480 5479 5476 5474 5471 5468 5465 5462 5460 5457 5453 5449 5445 5442 5439 5435 5432 5429 5426 5422 5419 5416 5412 5408 5402 5395 5389 5385 5381 5377 5374 5370 5366 5363 5360 5358 5355
5473 5474 5473 5476 5476 5474 5473 5473 5471 5469 5467 5465 5463 5460 5457 5455 5451 5448 5442 5439 5435 5430 5426 5422 5418 5415 5410 5406 5401 5396 5391 5386 5380 5374 5368 5362 5357 5353 5349 5345 5341 5339 5336 5333
5470 5471 5472 5471 5469 5468 5467 5467 5466 5464 5463 5461 5458 5455 5452 5448 5444 5440 5436 5431 5426 5421 5416 5411 5406 5401 5396 5390 5385 5379 5373 5366 5360 5353 5346 5341 5336 5332 5328 5323 5319 5317 5313 5310